FW1302 Weather Reports


Display with metric or nautical units.
time (UTC)temp
F
wind
direction
speed
MPH
gust
MPH
rain 1hr
in
rain 24hr
in
rain mn
in
humidity
%
barometer
mb
20260831174426 70 46 15.0 22.0 0.00 0.00 0.00 47 1021.3
20260831173426 70 44 12.0 18.0 0.00 0.00 0.00 47 1021.5
20260831172428 70 44 16.0 20.0 0.00 0.00 0.00 47 1021.3
20260831171426 70 46 11.0 18.0 0.00 0.00 0.00 47 1021.5
20260831170425 69 47 10.0 17.0 0.00 0.00 0.00 48 1021.7
20260831165426 69 45 11.0 16.0 0.00 0.00 0.00 49 1021.7
20260831164427 68 68 7.0 10.0 0.00 0.00 0.00 51 1021.9
20260831163525 67 43 7.0 13.0 0.00 0.00 0.00 54 1021.9
20260831161527 64 45 23.0 30.0 0.00 0.00 0.00 69 1021.8
20260831155526 62 46 19.0 29.0 0.00 0.00 0.00 71 1022.4
20260831154528 62 46 21.0 28.0 0.00 0.00 0.00 69 1022.4
20260831153528 62 48 12.0 21.0 0.00 0.00 0.00 69 1022.7
20260831152527 61 44 15.0 21.0 0.00 0.00 0.00 69 1022.9
20260831151627 61 66 7.0 11.0 0.00 0.00 0.00 70 1023.0
20260831143726 59 48 4.0 8.0 0.00 0.00 0.00 74 1023.4
20260831142726 59 46 5.0 10.0 0.00 0.00 0.00 74 1023.4
20260831141726 59 43 12.0 18.0 0.00 0.00 0.00 74 1023.2
20260831140728 59 49 10.0 17.0 0.00 0.00 0.00 76 1023.2
20260831135827 59 43 12.0 18.0 0.00 0.00 0.00 76 1023.1
20260831134827 58 44 12.0 19.0 0.00 0.00 0.00 75 1023.2
20260831133926 58 82 5.0 9.0 0.00 0.00 0.00 76 1023.5
20260831132927 58 54 7.0 10.0 0.00 0.00 0.00 76 1023.3
20260831131927 58 93 3.0 7.0 0.00 0.00 0.00 77 1023.4
20260831130927 57 86 4.0 12.0 0.00 0.00 0.00 77 1023.5
20260831124926 58 64 5.0 11.0 0.00 0.00 0.00 78 1023.5
20260831122929 57 30 5.0 7.0 0.00 0.00 0.00 80 1023.6
20260831122026 57 18 4.0 8.0 0.00 0.00 0.00 79 1023.7
20260831121026 57 91 2.0 4.0 0.00 0.00 0.00 82 1023.8
20260831120027 56 339 2.0 5.0 0.00 0.00 0.00 84 1023.8
20260831115026 55 90 2.0 3.0 0.00 0.00 0.00 84 1023.9
20260831114027 55 90 0.0 0.0 0.00 0.00 0.00 84 1024.1
20260831113026 55 90 0.0 0.0 0.00 0.00 0.00 83 1023.8
20260831112927 55 90 0.0 0.0 0.00 0.00 0.00 84 1023.9
20260831111926 55 90 0.0 0.0 0.00 0.00 0.00 84 1024.1
20260831111025 55 90 2.0 2.0 0.00 0.00 0.00 84 1024.2
20260831110026 55 90 0.0 0.0 0.00 0.00 0.00 82 1024.1
20260831105027 56 90 0.0 0.0 0.00 0.00 0.00 83 1024.2
20260831103125 55 90 0.0 0.0 0.00 0.00 0.00 83 1024.3
20260831102127 56 90 0.0 0.0 0.00 0.00 0.00 82 1024.1
20260831101225 56 90 0.0 1.0 0.00 0.00 0.00 83 1024.4
20260831100229 55 89 2.0 3.0 0.00 0.00 0.00 83 1024.4
20260831100127 55 62 1.0 3.0 0.00 0.00 0.00 83 1024.4
20260831095126 55 112 2.0 2.0 0.00 0.00 0.00 82 1024.5
20260831094225 56 112 0.0 1.0 0.00 0.00 0.00 81 1024.5
20260831093227 56 112 2.0 3.0 0.00 0.00 0.00 82 1024.8
20260831093126 56 112 2.0 3.0 0.00 0.00 0.00 82 1024.6
20260831092127 56 67 1.0 2.0 0.00 0.00 0.00 80 1024.8
20260831090225 56 67 2.0 3.0 0.00 0.00 0.00 79 1024.8
20260831085226 57 45 0.0 0.0 0.00 0.00 0.00 79 1025.0
20260831083325 56 67 2.0 3.0 0.00 0.00 0.00 79 1025.0
20260831081327 57 67 2.0 3.0 0.00 0.00 0.00 78 1025.3
20260831080326 57 67 1.0 2.0 0.00 0.00 0.00 77 1025.4
20260831074326 57 67 0.0 0.0 0.00 0.00 0.00 76 1025.5
20260831073328 58 67 1.0 2.0 0.00 0.00 0.00 75 1025.5
20260831072327 58 67 1.0 1.0 0.00 0.00 0.00 76 1025.8
20260831071328 58 67 0.0 0.0 0.00 0.00 0.00 75 1025.7
20260831070326 58 67 0.0 0.0 0.00 0.00 0.00 73 1025.8
20260831065410 58 67 0.0 0.0 0.00 0.00 0.00 74 1025.8
20260831064411 58 67 0.0 0.0 0.00 0.00 0.00 73 1025.9
20260831061512 58 67 0.0 0.0 0.00 0.00 0.00 72 1025.9
20260831060511 59 67 0.0 0.0 0.00 0.00 0.00 72 1025.9
20260831054610 59 67 0.0 0.0 0.00 0.00 0.00 71 1026.1
20260831051611 60 67 0.0 0.0 0.00 0.00 0.00 68 1026.2
20260831050710 61 67 0.0 0.0 0.00 0.00 0.00 67 1026.3
20260831045809 62 45 0.0 0.0 0.00 0.00 0.00 66 1026.3
20260831044908 62 45 2.0 2.0 0.00 0.00 0.00 65 1026.2
20260831044811 62 45 1.0 2.0 0.00 0.00 0.00 66 1026.3
20260831041910 65 315 0.0 1.0 0.00 0.00 0.00 66 1026.3
20260831040911 65 315 2.0 4.0 0.00 0.00 0.00 64 1026.2
20260831035912 66 270 1.0 2.0 0.00 0.00 0.00 60 1026.2
20260831034911 66 225 1.0 2.0 0.00 0.00 0.00 57 1026.2
20260831033911 66 157 0.0 0.0 0.00 0.00 0.00 56 1026.2
20260831033010 67 225 5.0 6.0 0.00 0.00 0.00 57 1026.1
20260831032010 67 212 4.0 8.0 0.00 0.00 0.00 55 1026.0
20260831031108 67 211 4.0 10.0 0.00 0.00 0.00 55 1026.0
20260831030109 68 218 4.0 6.0 0.00 0.00 0.00 55 1025.9
20260831024109 68 225 7.0 9.0 0.00 0.00 0.00 51 1025.9
20260831023110 69 216 10.0 14.0 0.00 0.00 0.00 50 1025.9
20260831022208 69 225 10.0 14.0 0.00 0.00 0.00 50 1026.0
20260831021209 70 229 10.0 14.0 0.00 0.00 0.00 48 1025.9
20260831015308 70 231 7.0 14.0 0.00 0.00 0.00 47 1025.9
20260831013309 71 227 10.0 15.0 0.00 0.00 0.00 47 1026.1
20260831012408 71 224 8.0 14.0 0.00 0.00 0.00 45 1026.0
20260831011410 71 224 7.0 12.0 0.00 0.00 0.00 45 1026.0
20260831010411 71 225 10.0 13.0 0.00 0.00 0.00 45 1026.1
20260831005509 71 225 12.0 14.0 0.00 0.00 0.00 43 1026.2
20260831004511 71 228 10.0 13.0 0.00 0.00 0.00 43 1026.3
20260831003609 71 230 9.0 13.0 0.00 0.00 0.00 44 1026.3
20260831002708 71 228 9.0 15.0 0.00 0.00 0.00 43 1026.3
20260831001709 71 227 9.0 13.0 0.00 0.00 0.00 43 1026.4
20260831000711 70 226 15.0 18.0 0.00 0.00 0.00 43 1026.4
20260830235810 70 225 14.0 19.0 0.00 0.00 0.00 43 1026.5
20260830234811 71 196 14.0 19.0 0.00 0.00 0.00 43 1026.6
20260830233810 70 223 8.0 11.0 0.00 0.00 0.00 43 1026.7
20260830232908 70 221 8.0 13.0 0.00 0.00 0.00 43 1026.8
20260830231911 70 215 9.0 15.0 0.00 0.00 0.00 43 1026.8
20260830231008 70 205 9.0 12.0 0.00 0.00 0.00 45 1027.0
20260830230010 69 223 9.0 13.0 0.00 0.00 0.00 44 1027.2
20260830225008 69 215 13.0 17.0 0.00 0.00 0.00 44 1027.2
20260830224010 69 218 11.0 15.0 0.00 0.00 0.00 45 1027.4
20260830223008 69 223 14.0 20.0 0.00 0.00 0.00 45 1027.6
20260830222011 68 219 13.0 18.0 0.00 0.00 0.00 46 1027.8
20260830220109 68 211 12.0 19.0 0.00 0.00 0.00 46 1027.9
20260830215209 68 215 10.0 13.0 0.00 0.00 0.00 46 1028.1
20260830214211 68 212 12.0 17.0 0.00 0.00 0.00 47 1028.5
20260830213210 67 211 14.0 17.0 0.00 0.00 0.00 47 1028.6
20260830212211 67 215 13.0 16.0 0.00 0.00 0.00 48 1028.6
20260830211212 67 220 11.0 15.0 0.00 0.00 0.00 49 1028.9
20260830210211 66 214 10.0 14.0 0.00 0.00 0.00 49 1029.0
20260830210110 66 222 8.0 11.0 0.00 0.00 0.00 50 1028.9
20260830204109 65 215 14.0 20.0 0.00 0.00 0.00 52 1029.1
20260830203110 65 212 13.0 17.0 0.00 0.00 0.00 52 1029.4
20260830201110 65 213 13.0 17.0 0.00 0.00 0.00 51 1029.5
20260830200110 65 223 7.0 13.0 0.00 0.00 0.00 53 1029.7
20260830195110 65 212 10.0 21.0 0.00 0.00 0.00 52 1029.8
20260830194110 64 208 9.0 14.0 0.00 0.00 0.00 53 1029.9
20260830193208 64 206 13.0 17.0 0.00 0.00 0.00 53 1029.9
20260830192210 64 206 8.0 11.0 0.00 0.00 0.00 53 1030.1
20260830191210 63 213 11.0 17.0 0.00 0.00 0.00 55 1030.0
20260830191109 63 220 11.0 14.0 0.00 0.00 0.00 55 1030.2
20260830190109 63 215 12.0 18.0 0.00 0.00 0.00 55 1030.1
20260830184110 63 221 9.0 13.0 0.00 0.00 0.00 55 1030.5
20260830183110 62 225 7.0 12.0 0.00 0.00 0.00 55 1030.5
20260830182208 62 221 8.0 13.0 0.00 0.00 0.00 58 1030.4
20260830181210 62 227 9.0 13.0 0.00 0.00 0.00 60 1030.6
20260830180210 61 232 10.0 14.0 0.00 0.00 0.00 61 1030.6
20260830175308 61 215 8.0 16.0 0.00 0.00 0.00 62 1030.8